This is the latest recevied weather packets stored in our database for station/object WA6GRA. If no packets are shown the sender has not sent any weather packets the latest 10 day(s).
| Time | Temp. | Humidity | Pressure | Rain* | Wind** | Luminosity | Snow |
|---|---|---|---|---|---|---|---|
| 1777776572 | 27.22° C | 40% | 1006.6 hPa | 0 mm | - | 2 W/m² | - |
| 1777775971 | 27.78° C | 39% | 1006.6 hPa | 0 mm | - | 5 W/m² | - |
| 1777775370 | 27.78° C | 39% | 1006.6 hPa | 0 mm | - | 11 W/m² | - |
| 1777774768 | 28.33° C | 37% | 1006.6 hPa | 0 mm | - | 17 W/m² | - |
| 1777774167 | 28.89° C | 36% | 1006.5 hPa | 0 mm | - | 25 W/m² | - |
| 1777773567 | 28.89° C | 36% | 1006.5 hPa | 0 mm | - | 33 W/m² | - |
| 1777772966 | 29.44° C | 35% | 1006.5 hPa | 0 mm | - | 37 W/m² | - |
| 1777772361 | 30° C | 34% | 1006.6 hPa | 0 mm | - | 68 W/m² | - |
| 1777771761 | 30° C | 33% | 1006.8 hPa | 0 mm | - | 53 W/m² | - |
| 1777771161 | 30.56° C | 32% | 1006.9 hPa | 0 mm | - | 124 W/m² | - |
| 1777770555 | 30.56° C | 31% | 1006.8 hPa | 0 mm | - | 125 W/m² | - |
| 1777769955 | 30° C | 31% | 1006.9 hPa | 0 mm | - | 149 W/m² | - |
| 1777769354 | 30.56° C | 30% | 1006.8 hPa | 0 mm | - | 207 W/m² | - |
| 1777768749 | 30.56° C | 29% | 1006.9 hPa | 0 mm | - | 221 W/m² | - |
| 1777768149 | 30.56° C | 29% | 1007 hPa | 0 mm | - | 232 W/m² | - |
| 1777767548 | 30.56° C | 29% | 1006.8 hPa | 0 mm | - | 289 W/m² | - |
| 1777766942 | 31.11° C | 29% | 1007 hPa | 0 mm | - | 304 W/m² | - |
| 1777766342 | 31.11° C | 30% | 1006.9 hPa | 0 mm | - | 354 W/m² | - |
| 1777765742 | 32.22° C | 29% | 1007 hPa | 0 mm | - | 389 W/m² | - |
| 1777765142 | 31.11° C | 29% | 1007.1 hPa | 0 mm | - | 411 W/m² | - |
| 1777764540 | 31.11° C | 31% | 1007.5 hPa | 0 mm | - | 422 W/m² | - |
| 1777763939 | 31.11° C | 30% | 1007.6 hPa | 0 mm | - | 513 W/m² | - |
| 1777763335 | 31.11° C | 30% | 1007.5 hPa | 0 mm | - | 521 W/m² | - |
| 1777762735 | 30.56° C | 28% | 1007.6 hPa | 0 mm | - | 540 W/m² | - |
| 1777762135 | 31.67° C | 29% | 1008.1 hPa | 0 mm | - | 553 W/m² | - |
* Rain latest hour (hover to see other rain measurements)
** Current wind speed in m/s (hover to see current wind gust speed)